Weather History for Fryeburg, ME

Change the Weather History Date:

Saturday, July 28, 2012

  Actual Average Record
Temperature  
Mean Temperature 70 °F -  
Max Temperature 82 °F 79 °F 89 °F (2010)
Min Temperature 60 °F 53 °F 37 °F (2001)
Cooling Degree Days 4    
Growing Degree Days 20 (Base 50)    
Moisture  
Dew Point 63 °F    
Average Humidity 93    
Maximum Humidity 100    
Minimum Humidity 62    
Precipitation  
Precipitation 0.05 in - - ()
Sea Level Pressure  
Sea Level Pressure 29.97 in    
Wind  
Wind Speed 1 mph (East)    
Max Wind Speed 9 mph    
Max Gust Speed -    
Visibility 4 miles    
Events Fog , Rain    
Averages and records for this station are not official NWS values.
T = Trace of Precipitation, MM = Missing Value Source: NWS Daily Summary

Daily Weather History Graph

Daily Weather History Graph

Search for Another Location

Airport:

Trip Planner

Search our weather history database for the weather conditions in past years. The results will help you decide how hot, cold, wet, or windy it might be!

Date:

Astronomy

Jul. 28, 2012 Rise Set
Actual Time 5:28 AM EDT 8:11 PM EDT
Civil Twilight 4:54 AM EDT 8:45 PM EDT
Nautical Twilight 4:12 AM EDT 9:26 PM EDT
Astronomical Twilight 3:23 AM EDT 10:15 PM EDT
Moon 4:14 PM EDT 12:44 AM EDT
Length of Visible Light 15h 50m
Length of Day
14h 43m
Waxing Gibbous, 75% of the Moon is Illuminated
Jul 28
Waxing Gibbous
Aug 1
Full
Aug 9
Last Quarter
Aug 17
New
Aug 24
First Quarter

Hourly Weather History & Observations

Time (EDT) Temp. Dew Point Humidity Pressure Visibility Wind Dir Wind Speed Gust Speed Precip Events Conditions
12:54 AM 64.0 °F 63.0 °F 96% 29.93 in 5.0 mi Calm Calm - N/A   Clear
1:49 AM 62.6 °F 62.6 °F 100% 29.94 in 1.8 mi Calm Calm - N/A   Clear
1:54 AM 62.1 °F 62.1 °F 100% 29.93 in 1.2 mi Calm Calm - N/A   Clear
2:00 AM 62.6 °F 62.6 °F 100% 29.93 in 1.0 mi Calm Calm - N/A   Mist
2:08 AM 62.6 °F 60.8 °F 94% 29.93 in 0.5 mi Calm Calm - N/A Fog Fog
2:32 AM 60.8 °F 60.8 °F 100% 29.94 in 1.0 mi Calm Calm - N/A   Mist
2:39 AM 60.8 °F 60.8 °F 100% 29.93 in 1.8 mi Calm Calm - N/A   Partly Cloudy
2:42 AM 60.8 °F 60.8 °F 100% 29.93 in 3.0 mi Calm Calm - N/A   Partly Cloudy
2:52 AM 60.8 °F 60.8 °F 100% 29.94 in 1.5 mi Calm Calm - N/A   Clear
2:54 AM 61.0 °F 60.1 °F 97% 29.94 in 1.2 mi Calm Calm - N/A   Partly Cloudy
2:57 AM 60.8 °F 60.8 °F 100% 29.94 in 0.8 mi Calm Calm - N/A   Mist
3:11 AM 60.8 °F 60.8 °F 100% 29.94 in 1.2 mi Calm Calm - N/A   Scattered Clouds
3:13 AM 60.8 °F 60.8 °F 100% 29.94 in 2.0 mi Calm Calm - N/A   Scattered Clouds
3:16 AM 60.8 °F 60.8 °F 100% 29.94 in 1.8 mi Calm Calm - N/A   Mostly Cloudy
3:26 AM 60.8 °F 60.8 °F 100% 29.95 in 1.0 mi Calm Calm - N/A   Mist
3:38 AM 60.8 °F 60.8 °F 100% 29.95 in 2.0 mi Calm Calm - N/A   Overcast
3:52 AM 60.8 °F 59.0 °F 94% 29.95 in 1.0 mi Calm Calm - N/A   Mist
3:54 AM 60.1 °F 60.1 °F 100% 29.95 in 0.5 mi Calm Calm - N/A Fog Fog
4:04 AM 60.8 °F 60.8 °F 100% 29.96 in 0.2 mi Calm Calm - N/A Fog Fog
4:35 AM 60.8 °F 60.8 °F 100% 29.97 in 1.5 mi Calm Calm - N/A   Overcast
4:37 AM 60.8 °F 60.8 °F 100% 29.97 in 4.0 mi Calm Calm - N/A   Overcast
4:45 AM 60.8 °F 59.0 °F 94% 29.97 in 1.2 mi Calm Calm - N/A   Overcast
4:50 AM 60.8 °F 60.8 °F 100% 29.97 in 0.2 mi Calm Calm - N/A Fog Fog
4:54 AM 60.1 °F 60.1 °F 100% 29.97 in 0.2 mi Calm Calm - N/A Fog Fog
5:11 AM 60.8 °F 60.8 °F 100% 29.97 in 0.5 mi Calm Calm - N/A Fog Fog
5:20 AM 60.8 °F 60.8 °F 100% 29.97 in 0.2 mi Calm Calm - N/A Fog Fog
5:54 AM 60.1 °F 60.1 °F 100% 29.98 in 0.2 mi Calm Calm - N/A Fog Fog
6:34 AM 60.8 °F 60.8 °F 100% 29.99 in 1.2 mi Calm Calm - 0.01 in   Overcast
6:36 AM 60.8 °F 60.8 °F 100% 29.99 in 2.0 mi Calm Calm - 0.01 in   Overcast
6:44 AM 60.8 °F 60.8 °F 100% 29.99 in 6.0 mi Calm Calm - 0.01 in   Mostly Cloudy
6:54 AM 63.0 °F 62.1 °F 97% 29.99 in 5.0 mi Calm Calm - 0.01 in   Overcast
7:03 AM 62.6 °F 62.6 °F 100% 30.00 in 6.0 mi Calm Calm - N/A   Overcast
7:54 AM 66.0 °F 64.9 °F 96% 30.00 in 10.0 mi Calm Calm - N/A   Overcast
8:54 AM 71.1 °F 64.0 °F 78% 30.01 in 10.0 mi Calm Calm - N/A   Partly Cloudy
9:54 AM 73.9 °F 63.0 °F 68% 30.01 in 10.0 mi Calm Calm - N/A   Scattered Clouds
10:54 AM 75.0 °F 64.9 °F 71% 30.01 in 10.0 mi NE 4.6 mph - N/A   Clear
11:54 AM 78.1 °F 64.9 °F 64% 30.00 in 10.0 mi NNE 4.6 mph - N/A   Clear
12:54 PM 79.0 °F 64.9 °F 62% 29.99 in 10.0 mi Variable 4.6 mph - N/A   Mostly Cloudy
1:54 PM 79.0 °F 66.0 °F 64% 29.98 in 10.0 mi NNE 5.8 mph - N/A   Overcast
2:54 PM 79.0 °F 66.0 °F 64% 29.98 in 10.0 mi ESE 6.9 mph - N/A   Mostly Cloudy
3:54 PM 77.0 °F 64.0 °F 64% 29.98 in 10.0 mi ESE 9.2 mph - N/A   Partly Cloudy
4:54 PM 75.9 °F 64.0 °F 67% 29.99 in 10.0 mi ESE 5.8 mph - N/A   Clear
5:54 PM 73.9 °F 63.0 °F 68% 30.00 in 10.0 mi Calm Calm - N/A   Mostly Cloudy
6:54 PM 70.0 °F 68.0 °F 93% 30.01 in 10.0 mi Calm Calm - 0.00 in Rain Light Rain
7:54 PM 69.1 °F 68.0 °F 96% 30.01 in 7.0 mi Calm Calm - 0.02 in Rain Light Rain
8:54 PM 68.0 °F 66.9 °F 96% 30.01 in 9.0 mi Calm Calm - 0.01 in Rain Light Rain
9:49 PM 66.2 °F 66.2 °F 100% 30.03 in 7.0 mi Calm Calm - 0.00 in Rain Light Rain
9:54 PM 66.9 °F 66.9 °F 100% 30.02 in 6.0 mi Calm Calm - 0.01 in Rain Light Rain
10:08 PM 66.2 °F 66.2 °F 100% 30.02 in 8.0 mi ESE 4.6 mph - 0.00 in Rain Light Rain
10:54 PM 66.9 °F 66.0 °F 97% 30.02 in 6.0 mi Calm Calm - 0.00 in   Overcast
11:54 PM 66.0 °F 66.0 °F 100% 30.01 in 5.0 mi Calm Calm - N/A   Overcast